Volver al catálogo

ATLAS 5 CENTAUR DEB

ActivoHEO
NORAD 44647·DEBRIS·🇺🇸 United States

Lanzado Oct 17, 2018 desde Cape Canaveral Space Force Station

Loading…

Próximos Pases (próximas 24 horas)

TLE

ActualizadoSource: Space-Track

Época: Sep 5, 2026, 16:45 UTC

1 44647U 18079H   26248.69856183 -.00000163  00000-0  00000-0 0  9999
2 44647  13.5412  13.4955 4632318 359.2077   0.1564  1.88053275 54093

Sigue ATLAS 5 CENTAUR DEB en tiempo real con AllMySat

Download on the App Store